This is the latest recevied weather packets stored in our database for station/object K7SKM. If no packets are shown the sender has not sent any weather packets the latest 10 day(s).
| Time | Temp. | Humidity | Pressure | Rain* | Wind** | Luminosity | Snow |
|---|---|---|---|---|---|---|---|
| 1787411171 | 16.67° C | 79% | 1022.1 hPa | 0 mm | - | 10 W/m² | - |
| 1787410867 | 16.67° C | 79% | 1022.1 hPa | 0 mm | - | 16 W/m² | - |
| 1787410562 | 16.67° C | 79% | 1021.8 hPa | 0 mm | - | 18 W/m² | - |
| 1787410257 | 16.67° C | 79% | 1021.9 hPa | 0 mm | - | 16 W/m² | - |
| 1787409953 | 16.67° C | 79% | 1021.9 hPa | 0 mm | - | 22 W/m² | - |
| 1787409649 | 16.67° C | 79% | 1022.1 hPa | 0 mm | - | 26 W/m² | - |
| 1787409345 | 16.67° C | 79% | 1021.9 hPa | 0 mm | - | 16 W/m² | - |
| 1787409041 | 16.67° C | 79% | 1022.1 hPa | 0 mm | - | 10 W/m² | - |
| 1787408736 | 16.67° C | 79% | 1022 hPa | 0 mm | - | 5 W/m² | - |
| 1787408431 | 16.67° C | 79% | 1021.7 hPa | 0 mm | - | 6 W/m² | - |
| 1787408127 | 16.67° C | 79% | 1021.9 hPa | 0 mm | - | 6 W/m² | - |
| 1787407822 | 16.67° C | 80% | 1021.5 hPa | 0 mm | - | 6 W/m² | - |
| 1787407518 | 16.67° C | 80% | 1021.4 hPa | 0 mm | - | 3 W/m² | - |
| 1787407218 | 16.67° C | 80% | 1021.6 hPa | 0 mm | - | 2 W/m² | - |
| 1787406913 | 16.11° C | 80% | 1021.6 hPa | 0 mm | - | 0 W/m² | - |
| 1787406609 | 16.11° C | 81% | 1021.9 hPa | 0 mm | - | 0 W/m² | - |
| 1787406305 | 16.11° C | 81% | 1021.8 hPa | 0 mm | - | 0 W/m² | - |
| 1787406001 | 16.11° C | 81% | 1021.5 hPa | 0 mm | - | 0 W/m² | - |
| 1787405696 | 16.11° C | 81% | 1021.7 hPa | 0 mm | - | 0 W/m² | - |
| 1787405392 | 16.67° C | 80% | 1021.5 hPa | 0 mm | - | 0 W/m² | - |
| 1787405088 | 16.11° C | 81% | 1021.5 hPa | 0 mm | - | 0 W/m² | - |
| 1787404783 | 16.11° C | 81% | 1021.3 hPa | 0 mm | - | 0 W/m² | - |
| 1787404479 | 16.67° C | 81% | 1021 hPa | 0 mm | - | 0 W/m² | - |
| 1787404178 | 16.67° C | 81% | 1021.1 hPa | 0 mm | - | 0 W/m² | - |
| 1787403873 | 16.67° C | 81% | 1021 hPa | 0 mm | - | 0 W/m² | - |
* Rain latest hour (hover to see other rain measurements)
** Current wind speed in m/s (hover to see current wind gust speed)